Location: Ertinghausen
(51.6624°N, 9.7874°E)
Time: 16:54:15
(UTC+00:00)

COSMOS 2428 - Pass Details

Date: 23 May 2024
Orbit: 844 x 856 km, 70.9° (Epoch: 23 June)

Event Time Altitude Azimuth Distance (km) Brightness Sun altitude
Rises 01:56:22 0° 330° (NNW) 3,415 6.2 -9.8°
Reaches altitude 10° 01:58:55 10° 336° (NNW) 2,477 5.5 -9.6°
Maximum altitude 02:04:25 48° 51° (NE) 1,096 3.9 -9.0°
Drops below altitude 10° 02:09:54 10° 126° (SE) 2,470 5.2 -8.5°
Sets 02:12:26 0° 132° (SE) 3,403 5.9 -8.2°
